User: anonymous   Login
Location: Haliburton Scout Reserve
(45.0900°N, 78.3200°W)
Time: 12:49:42
(UTC-05:00)
Language:

Courier 1B Rocket - Orbit

View from above orbital plane
View from above orbital plane
View from above satellite
View from above satellite

Ground track
Ground track

The orbit data is extracted from the following two-line orbital elements,

1 00059U 60013B   23029.84715258  .00000154  00000-0  92059-4 0  9999
2 00059  28.2503 345.3208 0189126  33.6831 327.5578 13.53016595 75863
Epoch (UTC): 29 January 2023 20:19:53
Eccentricity: 0.0189126
inclination: 28.2503°
perigee height: 920 km
apogee height: 1202 km
right ascension of ascending node: 345.3208°
argument of perigee: 33.6831°
revolutions per day: 13.53016595
mean anomaly at epoch: 327.5578°
orbit number at epoch: 7586

The dashed part of the orbit path shows where the satellite is in the earth's shadow,  

DLR